Grand Island, NE

12:55 AM CST on February 23, 2018 (GMT -0600)
Central Nebraska Regional

Weather History for KGRI - August, 2014

Change the Weather History Date:

Sunday, August 10, 2014

  Actual Average Record
Temperature  
Mean Temperature 75 °F 75 °F  
Max Temperature 85 °F 86 °F 105 °F (1935)
Min Temperature 64 °F 64 °F 44 °F (1985)
Degree Days  
Heating Degree Days 0 0  
Month to date heating degree days 0 0  
Since 1 June heating degree days 14 26  
Since 1 July heating degree days 4 2  
Cooling Degree Days 10 10  
Month to date cooling degree days 101 105  
Year to date cooling degree days 742 732  
Since 1 June cooling degree days 623 667  
Growing Degree Days 24 (Base 50)    
Moisture  
Dew Point 64 °F    
Average Humidity 72    
Maximum Humidity 93    
Minimum Humidity 51    
Precipitation  
Precipitation 0.09 in 0.11 in 1.64 in (1980)
Month to date precipitation 2.85 1.09  
Year to date precipitation 19.18 18.74  
Snow  
Snow 0.00 in 0.00 in - ()
Month to date snowfall 0.0 0.0  
Since 1 June snowfall 0.0 0.0  
Since 1 July snowfall 0.0 0.0  
Snow Depth 0.00 in    
Sea Level Pressure  
Sea Level Pressure 30.06 in    
Wind  
Wind Speed 6 mph (NNW)    
Max Wind Speed 18 mph    
Max Gust Speed 22 mph    
Visibility 9 miles    
Events Rain , Thunderstorm    
T = Trace of Precipitation, MM = Missing Value Source: NWS Daily Summary

Daily Weather History Graph

Daily Weather History Graph

Search for Another Location

Airport or City:

Trip Planner

Search our weather history database for the weather conditions in past years. The results will help you decide how hot, cold, wet, or windy it might be!

Date:

Astronomy

Aug. 10, 2014 Rise Set
Actual Time 6:38 AM CDT 8:38 PM CDT
Civil Twilight 6:08 AM CDT 9:08 PM CDT
Nautical Twilight 5:31 AM CDT 9:44 PM CDT
Astronomical Twilight 4:51 AM CDT 10:24 PM CDT
Moon 8:25 PM CDT (8/10) 6:32 AM CDT (8/10)
Length of Visible Light 15h 00m
Length of Day
14h 00m
Full, 100% of the Moon is Illuminated
Aug 10
Full
Aug 10
Full
Aug 17
Last Quarter
Aug 25
New
Sep 2
First Quarter

Hourly Weather History & Observations

Time (CDT) Temp. Heat Index Dew Point Humidity Pressure Visibility Wind Dir Wind Speed Gust Speed Precip Events Conditions
12:07 AM 66.9 °F - 64.9 °F 93% 30.10 in 5.0 mi South 8.1 mph - 0.05 in Rain , Thunderstorm Rain
12:22 AM 66.9 °F - 64.9 °F 93% 30.08 in 4.0 mi SE 9.2 mph - 0.15 in Rain Heavy Rain
12:53 AM 66.9 °F - 62.1 °F 84% 30.00 in 10.0 mi SSW 5.8 mph - 0.23 in Rain Light Rain
1:53 AM 66.9 °F - 62.1 °F 84% 29.98 in 10.0 mi North 4.6 mph - 0.01 in   Mostly Cloudy
2:53 AM 66.0 °F - 63.0 °F 90% 30.00 in 10.0 mi NW 8.1 mph - N/A   Clear
3:53 AM 64.4 °F - 62.6 °F 94% 30.05 in 10.0 mi North 3.5 mph - N/A   Clear
4:53 AM 64.0 °F - 62.1 °F 93% 30.01 in 10.0 mi North 4.6 mph - N/A   Clear
5:53 AM 64.9 °F - 62.1 °F 90% 30.03 in 10.0 mi NW 3.5 mph - N/A   Mostly Cloudy
6:53 AM 64.9 °F - 63.0 °F 93% 30.05 in 10.0 mi West 8.1 mph - N/A   Scattered Clouds
7:53 AM 66.0 °F - 63.0 °F 90% 30.04 in 10.0 mi NW 4.6 mph - N/A   Clear
8:53 AM 69.8 °F - 64.4 °F 83% 30.08 in 10.0 mi North 6.9 mph - N/A   Clear
9:53 AM 73.0 °F - 64.0 °F 73% 30.04 in 10.0 mi North 8.1 mph - N/A   Clear
10:53 AM 75.0 °F - 64.9 °F 71% 30.06 in 10.0 mi NNE 5.8 mph - N/A   Partly Cloudy
11:53 AM 79.0 °F - 64.9 °F 62% 30.08 in 10.0 mi North 5.8 mph - N/A   Clear
12:53 PM 81.0 °F 82.5 °F 64.0 °F 56% 30.07 in 10.0 mi NE 4.6 mph - N/A   Scattered Clouds
1:53 PM 82.0 °F 83.4 °F 64.0 °F 54% 30.07 in 10.0 mi North - - N/A   Scattered Clouds
2:53 PM 82.0 °F 84.1 °F 66.0 °F 58% 30.06 in 10.0 mi NNE 11.5 mph - N/A   Clear
3:53 PM 84.0 °F 85.8 °F 64.9 °F 53% 30.06 in 10.0 mi NW 4.6 mph - N/A   Clear
4:53 PM 84.9 °F 86.6 °F 64.9 °F 51% 30.05 in 10.0 mi North 3.5 mph - N/A   Clear
5:05 PM 84.0 °F 85.4 °F 64.0 °F 51% 30.09 in 10.0 mi NNW 8.1 mph - N/A Thunderstorm Clear
5:27 PM 73.9 °F - 66.9 °F 79% 30.10 in 2.5 mi WNW 13.8 mph 21.9 mph 0.02 in Rain , Thunderstorm Heavy Thunderstorms and Rain
5:42 PM 73.0 °F - 66.0 °F 79% 30.10 in 10.0 mi West 6.9 mph - 0.09 in Rain , Thunderstorm Light Rain
5:53 PM 75.0 °F - 68.0 °F 79% 30.06 in 10.0 mi WNW 4.6 mph - 0.09 in Thunderstorm Mostly Cloudy
6:53 PM 78.8 °F - 68.0 °F 69% 30.11 in 10.0 mi NNW 9.2 mph - N/A   Clear
7:53 PM 73.9 °F - 69.1 °F 85% 30.05 in 10.0 mi SW 4.6 mph - N/A   Clear
8:53 PM 73.0 °F - 66.9 °F 81% 30.07 in 10.0 mi NNW 6.9 mph - N/A   Clear
9:53 PM 70.0 °F - 63.0 °F 78% 30.09 in 10.0 mi NNW 9.2 mph - N/A   Clear
10:53 PM 68.0 °F - 63.0 °F 84% 30.12 in 10.0 mi North 8.1 mph - N/A   Clear
11:53 PM 66.9 °F - 64.0 °F 90% 30.13 in 10.0 mi NNW 6.9 mph - N/A   Clear